| time (UTC) | temp F | wind direction | speed MPH | gust MPH | rain 1hr in | rain 24hr in | rain mn in | humidity % | barometer mb |
| 20260505204543 | 83 | 182 | 9.0 | 20.0 | 0.00 | 0.01 | 0.01 | 29 | 1006.8 |
| 20260505203041 | 83 | 278 | 8.0 | 21.0 | 0.00 | 0.01 | 0.01 | 30 | 1006.8 |
| 20260505201541 | 83 | 238 | 5.0 | 16.0 | 0.00 | 0.01 | 0.01 | 30 | 1007.0 |
| 20260505200043 | 83 | 211 | 7.0 | 19.0 | 0.00 | 0.01 | 0.01 | 30 | 1006.9 |
| 20260505194539 | 83 | 249 | 8.0 | 28.0 | 0.00 | 0.01 | 0.01 | 30 | 1007.2 |
| 20260505193036 | 83 | 186 | 6.0 | 22.0 | 0.00 | 0.01 | 0.01 | 32 | 1007.4 |
| 20260505191535 | 83 | 214 | 8.0 | 19.0 | 0.00 | 0.01 | 0.01 | 31 | 1007.7 |
| 20260505190037 | 83 | 218 | 8.0 | 26.0 | 0.00 | 0.01 | 0.01 | 31 | 1007.7 |
| 20260505184530 | 83 | 221 | 6.0 | 30.0 | 0.00 | 0.01 | 0.01 | 34 | 1008.1 |
| 20260505183035 | 83 | 215 | 5.0 | 20.0 | 0.00 | 0.01 | 0.01 | 35 | 1008.3 |
| 20260505181526 | 83 | 218 | 4.0 | 14.0 | 0.00 | 0.01 | 0.01 | 37 | 1008.3 |
| 20260505180042 | 82 | 213 | 3.0 | 14.0 | 0.00 | 0.01 | 0.01 | 37 | 1008.4 |
| 20260505174523 | 82 | 194 | 4.0 | 14.0 | 0.00 | 0.01 | 0.01 | 38 | 1008.4 |
| 20260505173020 | 82 | 134 | 5.0 | 17.0 | 0.00 | 0.01 | 0.01 | 39 | 1008.7 |
| 20260505171517 | 81 | 228 | 2.0 | 14.0 | 0.00 | 0.01 | 0.01 | 40 | 1008.8 |
| 20260505170013 | 80 | 286 | 4.0 | 14.0 | 0.00 | 0.01 | 0.01 | 41 | 1009.0 |
| 20260505164510 | 79 | 194 | 3.0 | 10.0 | 0.00 | 0.01 | 0.01 | 43 | 1009.2 |
| 20260505163009 | 79 | 191 | 3.0 | 9.0 | 0.00 | 0.01 | 0.01 | 44 | 1009.4 |
| 20260505161503 | 78 | 256 | 2.0 | 7.0 | 0.00 | 0.01 | 0.01 | 45 | 1009.6 |
| 20260505153053 | 75 | 338 | 1.0 | 10.0 | 0.00 | 0.01 | 0.01 | 50 | 1010.2 |
| 20260505151551 | 74 | 221 | 2.0 | 7.0 | 0.00 | 0.01 | 0.01 | 51 | 1010.4 |
| 20260505124517 | 63 | 211 | 3.0 | 8.0 | 0.00 | 0.01 | 0.01 | 73 | 1010.5 |
| 20260505123027 | 61 | 216 | 1.0 | 4.0 | 0.00 | 0.01 | 0.01 | 76 | 1010.6 |
| 20260505121514 | 59 | 213 | 0.0 | 3.0 | 0.00 | 0.01 | 0.01 | 79 | 1010.7 |
| 20260505120022 | 59 | 225 | 0.0 | 3.0 | 0.01 | 0.01 | 0.01 | 80 | 1010.7 |
| 20260505114512 | 59 | 211 | 1.0 | 4.0 | 0.01 | 0.01 | 0.01 | 79 | 1010.7 |
| 20260505113010 | 59 | 97 | 2.0 | 5.0 | 0.01 | 0.01 | 0.01 | 78 | 1010.4 |
| 20260505111517 | 59 | 269 | 0.0 | 2.0 | 0.01 | 0.01 | 0.01 | 76 | 1010.7 |
| 20260505101514 | 56 | 172 | 1.0 | 4.0 | 0.00 | 0.00 | 0.00 | 76 | 1010.7 |
| 20260505100007 | 56 | 192 | 0.0 | 4.0 | 0.00 | 0.00 | 0.00 | 76 | 1010.3 |
| 20260505094501 | 57 | 218 | 0.0 | 2.0 | 0.00 | 0.00 | 0.00 | 75 | 1010.0 |
| 20260505093105 | 57 | 197 | 0.0 | 3.0 | 0.00 | 0.00 | 0.00 | 75 | 1009.8 |
| 20260505091559 | 57 | 193 | 2.0 | 4.0 | 0.00 | 0.00 | 0.00 | 74 | 1009.9 |
| 20260505090104 | 57 | 203 | 1.0 | 5.0 | 0.00 | 0.00 | 0.00 | 74 | 1009.9 |
| 20260505084606 | 57 | 221 | 1.0 | 3.0 | 0.00 | 0.00 | 0.00 | 73 | 1009.9 |
| 20260505083100 | 57 | 197 | 0.0 | 3.0 | 0.00 | 0.00 | 0.00 | 73 | 1009.9 |
| 20260505081618 | 57 | 191 | 0.0 | 2.0 | 0.00 | 0.00 | 0.00 | 72 | 1009.8 |
| 20260505074552 | 58 | 209 | 1.0 | 4.0 | 0.00 | 0.00 | 0.00 | 70 | 1009.9 |
| 20260505073051 | 58 | 211 | 2.0 | 6.0 | 0.00 | 0.00 | 0.00 | 70 | 1009.9 |
| 20260505071555 | 59 | 220 | 0.0 | 6.0 | 0.00 | 0.00 | 0.00 | 69 | 1009.8 |
| 20260505070050 | 59 | 203 | 0.0 | 3.0 | 0.00 | 0.00 | 0.00 | 68 | 1009.8 |
| 20260505064546 | 59 | 222 | 1.0 | 4.0 | 0.00 | 0.00 | 0.00 | 68 | 1009.7 |
| 20260505063049 | 59 | 221 | 2.0 | 5.0 | 0.00 | 0.00 | 0.00 | 67 | 1009.8 |
| 20260505061546 | 59 | 249 | 1.0 | 5.0 | 0.00 | 0.00 | 0.00 | 67 | 1009.9 |
| 20260505060042 | 59 | 218 | 1.0 | 4.0 | 0.00 | 0.00 | 0.00 | 67 | 1010.1 |
| 20260505054545 | 60 | 226 | 1.0 | 3.0 | 0.00 | 0.00 | 0.00 | 65 | 1010.1 |
| 20260505053043 | 60 | 211 | 0.0 | 4.0 | 0.00 | 0.00 | 0.00 | 64 | 1010.1 |
| 20260505051540 | 60 | 193 | 0.0 | 5.0 | 0.00 | 0.00 | 0.00 | 64 | 1010.2 |
| 20260505041528 | 62 | 219 | 1.0 | 7.0 | 0.00 | 0.00 | 0.00 | 59 | 1010.4 |
| 20260505040026 | 62 | 213 | 2.0 | 5.0 | 0.00 | 0.00 | 0.00 | 57 | 1010.4 |
| 20260505034525 | 62 | 202 | 2.0 | 7.0 | 0.00 | 0.00 | 0.00 | 56 | 1010.5 |
| 20260505033027 | 63 | 210 | 2.0 | 8.0 | 0.00 | 0.00 | 0.00 | 55 | 1010.5 |
| 20260505031531 | 63 | 209 | 2.0 | 8.0 | 0.00 | 0.00 | 0.00 | 55 | 1010.5 |
| 20260505030024 | 64 | 193 | 1.0 | 7.0 | 0.00 | 0.00 | 0.00 | 54 | 1010.7 |
| 20260505024524 | 64 | 211 | 2.0 | 8.0 | 0.00 | 0.00 | 0.00 | 53 | 1010.6 |
| 20260505023023 | 65 | 232 | 3.0 | 8.0 | 0.00 | 0.00 | 0.00 | 51 | 1010.7 |
| 20260505021521 | 65 | 200 | 1.0 | 8.0 | 0.00 | 0.00 | 0.00 | 50 | 1010.8 |
| 20260505020021 | 66 | 220 | 4.0 | 10.0 | 0.00 | 0.00 | 0.00 | 50 | 1010.7 |
| 20260505014521 | 66 | 208 | 3.0 | 9.0 | 0.00 | 0.00 | 0.00 | 47 | 1010.7 |
| 20260505013023 | 67 | 203 | 2.0 | 8.0 | 0.00 | 0.00 | 0.00 | 42 | 1010.5 |
| 20260505011526 | 67 | 238 | 2.0 | 9.0 | 0.00 | 0.00 | 0.00 | 41 | 1010.3 |
| 20260505010029 | 68 | 225 | 1.0 | 7.0 | 0.00 | 0.00 | 0.00 | 40 | 1010.0 |
| 20260505004518 | 68 | 211 | 3.0 | 9.0 | 0.00 | 0.00 | 0.00 | 39 | 1009.8 |
| 20260505003017 | 69 | 227 | 1.0 | 6.0 | 0.00 | 0.00 | 0.00 | 38 | 1009.7 |
| 20260505001517 | 69 | 236 | 2.0 | 9.0 | 0.00 | 0.00 | 0.00 | 38 | 1009.4 |
| 20260505000029 | 70 | 223 | 3.0 | 8.0 | 0.00 | 0.00 | 0.00 | 37 | 1009.1 |
| 20260504234516 | 70 | 167 | 1.0 | 7.0 | 0.00 | 0.00 | 0.00 | 36 | 1008.9 |
| 20260504233015 | 71 | 220 | 2.0 | 10.0 | 0.00 | 0.00 | 0.00 | 36 | 1008.8 |
| 20260504231514 | 71 | 213 | 2.0 | 9.0 | 0.00 | 0.00 | 0.00 | 36 | 1008.5 |
| 20260504230014 | 71 | 211 | 2.0 | 9.0 | 0.00 | 0.00 | 0.00 | 35 | 1008.5 |
| 20260504224514 | 72 | 211 | 4.0 | 12.0 | 0.00 | 0.00 | 0.00 | 35 | 1008.3 |
| 20260504223013 | 72 | 234 | 3.0 | 11.0 | 0.00 | 0.00 | 0.00 | 34 | 1008.5 |
| 20260504221525 | 73 | 247 | 2.0 | 10.0 | 0.00 | 0.00 | 0.00 | 34 | 1008.5 |
| 20260504220010 | 73 | 280 | 4.0 | 12.0 | 0.00 | 0.00 | 0.00 | 34 | 1008.7 |
| 20260504214507 | 73 | 205 | 1.0 | 9.0 | 0.00 | 0.00 | 0.00 | 33 | 1008.8 |
| 20260504213006 | 73 | 266 | 1.0 | 14.0 | 0.00 | 0.00 | 0.00 | 34 | 1008.9 |
| 20260504211506 | 73 | 205 | 2.0 | 9.0 | 0.00 | 0.00 | 0.00 | 34 | 1008.9 |